Regional Weather Roundup
Issued by NWS

Home | Current Version | Previous Version | Text Only | Print | Product List | Glossary On
Versions: 1 2 3 4 5 6 7 8 9 10 11 12 13 14 15 16 17 18 19 20 21 22 23 24 25 26 27 28 29 30 31 32 33 34 35 36 37 38 39 40 41 42 43 44 45 46 47 48 49 50
000
ASUS44 KJAN 011610
RWRMS

MISSISSIPPI HOURLY WEATHER ROUNDUP
NATIONAL WEATHER SERVICE JACKSON MS
1100 AM CDT TUE SEP 01 2015

NOTE: "FAIR: INDICATES FEW OR NO CLOUDS BELOW 12,000 FEET WITH NO
SIGNIFICANT WEATHER AND/OR OBSTRUCTIONS TO VISIBILITY.

MSZ001>002-007>008-010>013-018>021-025>028-034>036-011700-
NORTHWEST MISSISSIPPI

CITY           SKY/WX    TMP DP  RH WIND       PRES   REMARKS
CLARKSDALE     FAIR      84  72  65 E5        30.12R
CLEVELAND      FAIR      87  69  55 CALM      30.10R HX  91
GREENWOOD      MOSUNNY   86  70  58 VRB3      30.10R HX  90
GREENVILLE     PTSUNNY   87  69  54 NW3       30.10R HX  91
OLIVE BRANCH   PTSUNNY   82  72  69 SE5       30.12S
OXFORD         FAIR      82  66  57 E5        30.14S
TUNICA         MOSUNNY   82  72  69 E5        30.12R
$$

MSZ003>006-009-014>017-022>024-029>033-037>039-011700-
NORTHEAST MISSISSIPPI

CITY           SKY/WX    TMP DP  RH WIND       PRES   REMARKS
COLUMBUS AFB   SUNNY     85  69  57 VRB1      30.10S
CORINTH        FAIR      84  68  58 VRB5      30.13S
GOLDN TRIANGLE SUNNY     84  68  58 E7        30.11R
STARKVILLE     FAIR      84  70  61 NE5       30.12R
TUPELO         SUNNY     84  67  56 VRB7      30.12S
$$

MSZ040-058-011700-
CENTRAL MISSISSIPPI

CITY           SKY/WX    TMP DP  RH WIND       PRES   REMARKS
JACKSON INTL   MOSUNNY   90  66  45 VRB3      30.11R HX  92
JACKSON HAWKNS MOSUNNY   89  69  51 W8        30.11R HX  93
MERIDIAN KEY   SUNNY     86  71  60 VRB5      30.11R HX  91
MERIDIAN NAS   PTSUNNY   86  71  60 VRB5      30.11R HX  91
VICKSBURG      MOSUNNY   87  72  60 CALM      30.10S HX  93
$$

MSZ059>079-011700-
SOUTH MISSISSIPPI

CITY           SKY/WX    TMP DP  RH WIND       PRES   REMARKS
BROOKHAVEN     FAIR      90  68  48 N5        30.13S HX  93
HATTIESBURG    SUNNY     90  66  45 CALM      30.11S HX  92
MCCOMB         SUNNY     88  71  57 VRB5      30.11S HX  94
NATCHEZ        MOSUNNY   84  70  61 NE3       30.11F
PINE BELT      SUNNY     90  61  37 CALM      30.13S
$$

MSZ080>082-011700-
COASTAL MISSISSIPPI

CITY           SKY/WX    TMP DP  RH WIND       PRES   REMARKS
BAY ST LOUIS   SUNNY     88  59  37 CALM      30.10S
BILOXI         SUNNY     88  65  47 VRB1      30.09S HX  90
PASCAGOULA     MOSUNNY   89  65  44 CALM      30.10R HX  91
GULFPORT       SUNNY     88  62  41 CALM      30.09S
$$



USA.gov is the U.S. government's official web portal to all federal, state and local government web resources and services.